Terminal Aerodrome Forecast
Issued by NWS Milwaukee/Sullivan, WI

Home | Current Version | Previous Version | Text Only | Print | Product List | Glossary On
Versions: 1 2 3 4 5 6 7 8 9 10 11 12 13 14 15 16 17 18 19 20 21 22 23 24 25 26 27 28 29 30 31 32 33 34 35 36 37 38 39 40 41 42 43
000
FTUS43 KMKX 272331
TAFMSN
TAF
KMSN 272331Z 2800/2824 29009KT P6SM OVC015
      TEMPO 2800/2803 SCT015 BKN025
     FM280300 29008KT P6SM SCT025
     FM280600 29008KT P6SM SKC
     FM282200 29004KT P6SM SCT250=

USA.gov is the U.S. government's official web portal to all federal, state and local government web resources and services.